When you browse on this site, cookies collect data to enhance your experience and personalize the content and advertising you see.
Visit our Privacy Policy to learn more. By continuing to use the site, you agree to this use of cookies and data.
  • In Hungary
  • List of Countries
  • For 7 days
  • Water Temperature
  • Weather Map
  • News
  • Weather Widgets
  • user-avatar
    Login

    Hourly Weather Ayutinskiy

    Today, 18 November, Monday

    Time Temperature Precipitation Wind Pressure Humidity
    00:00 +3°C° 0 mm 5 mps 759 mmHg 80%
    01:00 +3°C° 0 mm 5 mps 759 mmHg 83%
    02:00 +3°C° 0 mm 4 mps 759 mmHg 86%
    03:00 +1°C° 0 mm 4 mps 758 mmHg 89%
    04:00 +1°C° 0 mm 4 mps 758 mmHg 90%
    05:00 +1°C° 0 mm 4 mps 758 mmHg 92%
    06:00 +1°C° 0 mm 5 mps 758 mmHg 93%
    07:00 +1°C° 0 mm 5 mps 758 mmHg 92%
    08:00 +1°C° 0 mm 5 mps 758 mmHg 91%
    09:00 +1°C° 0 mm 6 mps 758 mmHg 88%
    10:00 +3°C° 0 mm 6 mps 758 mmHg 82%
    11:00 +5°C° 0 mm 5 mps 758 mmHg 76%
    12:00 +6°C° 0 mm 5 mps 758 mmHg 69%
    13:00 +7°C° 0 mm 5 mps 758 mmHg 65%
    14:00 +8°C° 0 mm 5 mps 757 mmHg 62%
    15:00 +9°C° 0 mm 5 mps 757 mmHg 58%
    16:00 +8°C° 0 mm 4 mps 757 mmHg 63%
    17:00 +7°C° 0 mm 4 mps 757 mmHg 67%
    18:00 +7°C° 0 mm 3 mps 757 mmHg 72%
    19:00 +5°C° 0 mm 3 mps 757 mmHg 73%
    20:00 +5°C° 0 mm 3 mps 757 mmHg 75%
    21:00 +4°C° 0 mm 3 mps 757 mmHg 76%
    22:00 +4°C° 0 mm 3 mps 757 mmHg 77%
    23:00 +3°C° 0 mm 3 mps 757 mmHg 78%

    Tomorrow, 19 November, Tuesday

    Time Temperature Precipitation Wind Pressure Humidity
    00:00 +3°C° 0 mm 3 mps 757 mmHg 79%
    01:00 +2°C° 0 mm 3 mps 757 mmHg 81%
    02:00 +2°C° 0 mm 3 mps 757 mmHg 82%
    03:00 +3°C° 0 mm 2 mps 757 mmHg 84%
    04:00 +3°C° 0 mm 2 mps 757 mmHg 85%
    05:00 +1°C° 0 mm 3 mps 757 mmHg 86%
    06:00 +1°C° 0 mm 3 mps 757 mmHg 87%
    07:00 +2°C° 0 mm 3 mps 757 mmHg 85%
    08:00 +2°C° 0 mm 3 mps 758 mmHg 83%
    09:00 +3°C° 0 mm 3 mps 758 mmHg 82%
    10:00 +4°C° 0 mm 3 mps 758 mmHg 76%
    11:00 +7°C° 0 mm 3 mps 758 mmHg 70%
    12:00 +8°C° 0 mm 3 mps 757 mmHg 65%
    13:00 +9°C° 0 mm 3 mps 757 mmHg 63%
    14:00 +9°C° 0 mm 3 mps 757 mmHg 61%
    15:00 +10°C° 0 mm 2 mps 757 mmHg 59%
    16:00 +8°C° 0 mm 2 mps 757 mmHg 63%
    17:00 +7°C° 0 mm 2 mps 757 mmHg 68%
    18:00 +5°C° 0 mm 3 mps 757 mmHg 73%
    19:00 +4°C° 0 mm 3 mps 757 mmHg 75%
    20:00 +4°C° 0 mm 3 mps 757 mmHg 77%
    21:00 +3°C° 0 mm 3 mps 757 mmHg 79%
    22:00 +3°C° 0 mm 3 mps 757 mmHg 79%
    23:00 +2°C° 0 mm 3 mps 757 mmHg 79%

    Day after tomorrow, 20 November, Wednesday

    Time Temperature Precipitation Wind Pressure Humidity
    00:00 +2°C° 0 mm 3 mps 757 mmHg 79%
    01:00 +1°C° 0 mm 3 mps 757 mmHg 79%
    02:00 +1°C° 0 mm 3 mps 757 mmHg 78%
    03:00 +1°C° 0 mm 3 mps 758 mmHg 77%
    04:00 0°C° 0 mm 3 mps 758 mmHg 76%
    05:00 0°C° 0 mm 3 mps 758 mmHg 75%
    06:00 0°C° 0 mm 3 mps 757 mmHg 73%
    07:00 -1°C° 0 mm 4 mps 758 mmHg 69%
    08:00 -1°C° 0 mm 4 mps 758 mmHg 65%
    09:00 0°C° 0 mm 4 mps 759 mmHg 61%
    10:00 +1°C° 0 mm 5 mps 759 mmHg 57%
    11:00 +2°C° 0 mm 5 mps 759 mmHg 54%
    12:00 +3°C° 0 mm 5 mps 759 mmHg 50%
    13:00 +4°C° 0 mm 6 mps 759 mmHg 53%
    14:00 +4°C° 0 mm 6 mps 759 mmHg 57%
    15:00 +4°C° 0 mm 6 mps 759 mmHg 60%
    16:00 +4°C° 0 mm 7 mps 759 mmHg 67%
    17:00 +3°C° 0 mm 7 mps 759 mmHg 74%
    18:00 +2°C° 0 mm 7 mps 760 mmHg 81%
    19:00 0°C° 0 mm 8 mps 760 mmHg 84%
    20:00 0°C° 0 mm 8 mps 761 mmHg 87%
    21:00 -1°C° 0 mm 8 mps 761 mmHg 89%
    22:00 -2°C° 0 mm 8 mps 761 mmHg 82%
    23:00 -4°C° 0 mm 8 mps 762 mmHg 74%

    21 November, Thursday

    Time Temperature Precipitation Wind Pressure Humidity
    00:00 -5°C° 0 mm 8 mps 762 mmHg 66%
    01:00 -6°C° 0 mm 8 mps 762 mmHg 66%
    02:00 -6°C° 0 mm 8 mps 763 mmHg 65%
    03:00 -7°C° 0 mm 8 mps 763 mmHg 65%
    04:00 -8°C° 0 mm 8 mps 764 mmHg 64%
    05:00 -9°C° 0 mm 7 mps 764 mmHg 63%
    06:00 -11°C° 0 mm 7 mps 764 mmHg 63%
    07:00 -11°C° 0 mm 8 mps 764 mmHg 60%
    08:00 -11°C° 0 mm 8 mps 765 mmHg 58%
    09:00 -11°C° 0 mm 8 mps 765 mmHg 55%
    10:00 -10°C° 0 mm 8 mps 765 mmHg 52%
    11:00 -8°C° 0 mm 8 mps 766 mmHg 48%
    12:00 -7°C° 0 mm 8 mps 766 mmHg 44%
    13:00 -7°C° 0 mm 8 mps 766 mmHg 44%
    14:00 -7°C° 0 mm 8 mps 766 mmHg 43%
    15:00 -7°C° 0 mm 8 mps 766 mmHg 43%
    16:00 -8°C° 0 mm 8 mps 766 mmHg 43%
    17:00 -10°C° 0 mm 8 mps 766 mmHg 43%
    18:00 -10°C° 0 mm 8 mps 766 mmHg 43%
    19:00 -11°C° 0 mm 7 mps 766 mmHg 42%
    20:00 -11°C° 0 mm 7 mps 766 mmHg 42%
    21:00 -11°C° 0 mm 7 mps 767 mmHg 41%
    22:00 -11°C° 0 mm 7 mps 767 mmHg 41%
    23:00 -12°C° 0 mm 7 mps 767 mmHg 42%

    22 November, Friday

    Time Temperature Precipitation Wind Pressure Humidity
    00:00 -12°C° 0 mm 7 mps 767 mmHg 42%
    01:00 -12°C° 0 mm 7 mps 767 mmHg 42%
    02:00 -11°C° 0 mm 6 mps 767 mmHg 42%
    03:00 -11°C° 0 mm 6 mps 767 mmHg 42%
    04:00 -12°C° 0 mm 7 mps 767 mmHg 44%
    05:00 -12°C° 0 mm 7 mps 767 mmHg 46%
    06:00 -13°C° 0 mm 7 mps 767 mmHg 48%
    07:00 -12°C° 0 mm 7 mps 767 mmHg 48%
    08:00 -12°C° 0 mm 7 mps 767 mmHg 47%
    09:00 -11°C° 0 mm 8 mps 767 mmHg 47%
    10:00 -10°C° 0 mm 8 mps 766 mmHg 41%
    11:00 -7°C° 0 mm 8 mps 766 mmHg 36%
    12:00 -6°C° 0 mm 8 mps 766 mmHg 30%
    13:00 -6°C° 0 mm 8 mps 765 mmHg 30%
    14:00 -5°C° 0 mm 8 mps 765 mmHg 29%
    15:00 -5°C° 0 mm 8 mps 765 mmHg 29%
    16:00 -6°C° 0 mm 7 mps 764 mmHg 32%
    17:00 -7°C° 0 mm 7 mps 764 mmHg 35%
    18:00 -8°C° 0 mm 7 mps 764 mmHg 39%
    19:00 -8°C° 0 mm 7 mps 764 mmHg 40%
    20:00 -9°C° 0 mm 7 mps 764 mmHg 41%
    21:00 -9°C° 0 mm 7 mps 764 mmHg 43%
    22:00 -9°C° 0 mm 7 mps 764 mmHg 43%
    23:00 -11°C° 0 mm 7 mps 764 mmHg 44%

    23 November, Saturday

    Time Temperature Precipitation Wind Pressure Humidity
    00:00 -11°C° 0 mm 7 mps 764 mmHg 45%
    01:00 -10°C° 0 mm 6 mps 763 mmHg 45%
    02:00 -10°C° 0 mm 6 mps 763 mmHg 46%
    03:00 -10°C° 0 mm 6 mps 763 mmHg 47%
    04:00 -10°C° 0 mm 6 mps 763 mmHg 47%
    05:00 -10°C° 0 mm 6 mps 763 mmHg 48%
    06:00 -10°C° 0 mm 6 mps 763 mmHg 49%
    07:00 -10°C° 0 mm 6 mps 763 mmHg 48%
    08:00 -11°C° 0 mm 7 mps 763 mmHg 47%
    09:00 -9°C° 0 mm 7 mps 763 mmHg 46%
    10:00 -8°C° 0 mm 7 mps 763 mmHg 44%
    11:00 -6°C° 0 mm 7 mps 763 mmHg 41%
    12:00 -4°C° 0 mm 7 mps 762 mmHg 38%
    13:00 -4°C° 0 mm 7 mps 762 mmHg 36%
    14:00 -4°C° 0 mm 7 mps 761 mmHg 34%
    15:00 -3°C° 0 mm 7 mps 761 mmHg 33%
    16:00 -4°C° 0 mm 7 mps 761 mmHg 34%
    17:00 -6°C° 0 mm 7 mps 761 mmHg 35%
    18:00 -6°C° 0 mm 6 mps 761 mmHg 37%
    19:00 -8°C° 0 mm 6 mps 761 mmHg 38%
    20:00 -8°C° 0 mm 6 mps 761 mmHg 39%
    21:00 -8°C° 0 mm 6 mps 761 mmHg 40%
    22:00 -8°C° 0 mm 6 mps 761 mmHg 42%
    23:00 -9°C° 0 mm 6 mps 761 mmHg 44%
    Show more